Weather History for HEAR - April, 2013

Change the Weather History Date:

Wednesday, April 3, 2013

  Actual Average Record
Temperature  
Mean Temperature 64 °F -  
Max Temperature 85 °F 78 °F - ()
Min Temperature 44 °F 54 °F - ()
Growing Degree Days 14 (Base 50)    
Moisture  
Dew Point 45 °F    
Average Humidity 59    
Maximum Humidity 100    
Minimum Humidity 6    
Precipitation  
Precipitation 0.00 in 0.01 in - ()
Sea Level Pressure  
Sea Level Pressure 29.84 in    
Wind  
Wind Speed 4 mph ()    
Max Wind Speed 10 mph    
Max Gust Speed -    
Visibility 5.4 miles    
Events      
T = Trace of Precipitation, MM = Missing Value Source: Averaged Metar Reports

Daily Weather History Graph

Daily Weather History Graph

Search for Another Location

Airport or City:

Trip Planner

Search our weather history database for the weather conditions in past years. The results will help you decide how hot, cold, wet, or windy it might be!

Date:

Astronomy

Apr. 03, 2013 Rise Set
Actual Time 5:31 AM EET 6:05 PM EET
Civil Twilight 5:06 AM EET 6:29 PM EET
Nautical Twilight 4:38 AM EET 6:58 PM EET
Astronomical Twilight 4:09 AM EET 7:27 PM EET
Moon 12:29 AM EET (4/3) 11:19 AM EET (4/3)
Length of Visible Light 13h 22m
Length of Day
12h 34m
Waning Gibbous, 47% of the Moon is Illuminated
Apr 3
Waning Gibbous
Apr 10
New
Apr 18
First Quarter
Apr 25
Full
May 2
Last Quarter

Hourly Weather History & Observations

Time (EET) Temp. Dew Point Humidity Pressure Visibility Wind Dir Wind Speed Gust Speed Precip Events Conditions
12:00 AM 50.0 °F 50.0 °F 100% 29.95 in - SE 3.5 mph - N/A   Clear
1:00 AM 51.8 °F 51.8 °F 100% 29.92 in - South 4.6 mph - N/A   Clear
2:00 AM 50 °F 50 °F 100% 29.93 in 6 mi South 2.3 mph - -  
2:00 AM 50.0 °F 50.0 °F 100% 29.92 in - South 2.3 mph - N/A   Clear
3:00 AM 50.0 °F 50.0 °F 100% 29.92 in - South 2.3 mph - N/A   Clear
4:00 AM 51.8 °F 51.8 °F 100% 29.92 in - South 2.3 mph - N/A   Clear
5:00 AM 46.4 °F 46.4 °F 100% 29.92 in 3.7 mi Calm Calm - N/A   Unknown
7:00 AM 51.8 °F 51.8 °F 100% 29.92 in 3.7 mi SSE 5.8 mph - N/A   Unknown
8:00 AM 60 °F 49 °F 58% 29.92 in 6 mi SSE 6.9 mph - -  
8:00 AM 60.8 °F 50.0 °F 68% 29.92 in - SSE 6.9 mph - N/A   Clear
9:00 AM 68.0 °F 44.6 °F 43% 29.92 in - SE 5.8 mph - N/A   Clear
10:00 AM 73.4 °F 37.4 °F 27% 29.89 in - SSE 4.6 mph - N/A   Clear
11:00 AM 78.8 °F 51.8 °F 39% 29.86 in 6.2 mi SSE 2.3 mph - N/A   Scattered Clouds
12:00 PM 82.4 °F 15.8 °F 8% 29.83 in - East 4.6 mph - N/A   Clear
1:00 PM 82.4 °F 6.8 °F 6% 29.80 in - East 4.6 mph - N/A   Clear
2:00 PM 82 °F 40 °F 13% 29.79 in 6 mi NNE 9.2 mph - -  
2:00 PM 82.4 °F 41.0 °F 23% 29.77 in - NNE 9.2 mph - N/A   Clear
3:00 PM 78.8 °F 41.0 °F 26% 29.77 in - NNE 9.2 mph - N/A   Clear
4:00 PM 77.0 °F 41.0 °F 28% 29.77 in - NE 10.4 mph - N/A   Clear
5:00 PM 73.4 °F 46.4 °F 38% 29.74 in - NNE 9.2 mph - N/A   Clear
6:00 PM 69.8 °F 46.4 °F 43% 29.74 in - NE 8.1 mph - N/A   Clear
7:00 PM 66.2 °F 51.8 °F 60% 29.74 in - NE 5.8 mph - N/A   Clear
8:00 PM 64 °F 54 °F 60% 29.78 in 6 mi ENE 2.3 mph - -  
8:00 PM 64.4 °F 53.6 °F 68% 29.77 in - ENE 2.3 mph - N/A   Clear
9:00 PM 64.4 °F 53.6 °F 68% 29.77 in - East 3.5 mph - N/A   Clear
10:00 PM 62.6 °F 46.4 °F 55% 29.74 in - SSE 8.1 mph - N/A   Clear
11:00 PM 62.6 °F 46.4 °F 55% 29.74 in - SSE 8.1 mph - N/A   Clear